Terug naar catalogus

DELTA 1 DEB

ActiefPO
NORAD 26832·DEBRIS·🇺🇸 United States

Gelanceerd Jun 12, 1975 vanaf Vandenberg Space Force Base

Loading…

Volgende Passages (komende 24 uur)

TLE

VersSource: Space-Track

Epoch: Sep 11, 2026, 19:47 UTC

1 26832U 75052KL  26254.82483587  .00000125  00000-0  78203-3 0  9995
2 26832  99.6327 206.5352 0621985  35.8639 354.3651 12.21546532590762

Volg DELTA 1 DEB in realtime met AllMySat

Download on the App Store